Location: Le Domaine
(47.0333°N, 76.5361°W)
Time: 05:53:21
(UTC-05:00)

S-56A Canister/Altair - Pass Details

Date: 25 November 2019
Orbit: 633 x 2499 km, 38.9° (Epoch: 10 December)

Event Time Altitude Azimuth Distance (km) Brightness Sun altitude
Rises 17:02:56 0° 256° (WSW) 5,623 14.2 -7.0°
Reaches altitude 10° 17:07:08 10° 253° (WSW) 4,365 13.1 -7.6°
Maximum altitude 17:17:47 51° 182° (S) 1,756 9.5 -9.3°
Drops below altitude 10° 17:24:51 10° 109° (ESE) 2,948 10.0 -10.5°
Enters shadow 17:25:47 - 106° (ESE) 3,244 10.2 -10.6°
Sets 17:27:10 0° 103° (ESE) 3,704 - -10.8°
